Weather in Caraguatatuba

Brazil     23°37′28″S   45°25′23″W
temp.,
°C
wind,
m/s
gust,
m/s
humid.,
%
clouds,
%
prec.,
mm/h
press.,
hPa
HPBL,
m
11 may, tue
tue1100:00+13nw119716 0.0 102038
03:00+12nnw22961 0.0 101842
06:00+12nnw2295100 0.0 101847
09:00+19nw24695 0.0 1018357
12:00+24wnw374717 0.0 10161603
15:00+25sw264427 0.0 10141959
18:00+15se1198100 0.0 101644
21:00+14n019922 0.0 101914
12 may, wed
wed1200:00+13nnw119696 0.0 101712
03:00+13n119610 0.0 101613
06:00+13nw119423 0.0 101719
09:00+19wnw116996 0.0 1017374
12:00+23s1353100 0.0 10151156
15:00+19se3381100 0.4 1015450
18:00+16sse249854 0.6 1018214
21:00+16w019898 0.9 101939
13 may, thu
thu1300:00+16s3699100 1.4 1019460
03:00+15sse2599100 4.6 1019440
06:00+15sse24100100 16.8 1020226
09:00+15ese1299100 19.9 1022191
12:00+16sse129893 3.2 1021309
15:00+15sse2399100 4.0 1020231
18:00+14sse1310099 0.3 1022273
21:00+14sse139996 0.5 1023164
14 may, fri
fri1400:00+14se1310090 0.1 1023166
03:00+14ese1310091 0.1 1021156
06:00+14e119886 0.1 1022110
09:00+16se129177 0.1 1023405
12:00+19se2272100 0.2 1021962
15:00+18se337893 0.4 1020658
18:00+14se129961 0.1 102048
21:00+15se1398100 0.3 1021196
15 may, sat
sat1500:00+15ese129983 0.1 1021170
03:00+14ese129878 0.1 1019163
06:00+14e019738 0.1 101950
09:00+17se118560 0.1 1021423
12:00+16se129576 0.2 1020103
15:00+17sse228930 0.4 1019372
18:00+15se129943 0.1 101985
21:00+15ese129980 0.1 1021149